Карточка аэропорта UATG

Внимание!
Информация на этой странице в стадии наполнения.
Если вы не увидели какой-то информации, или заметили неточность - пожалуйста сообщите нам!
Спасибо!
Команда RU-STAFF
Название аэропортаАтырау
Название аэропорта (англ.)Atyrau
Превышение-72 ft. (-21.9 m.)
Координаты47°7.332', 51°49.764'
Высота перехода10000ft
Эшелон переходаFL120, QNH<733:FL130
Коды ответчика3450-3457, 3560-3567
Зона ОрВДАктобе РПИ (UATT)
Данные METARUATG 250530Z 31010MPS 9999 SCT026CB 22/16 Q0998 NOSIG RMK QFE750/1001
Проноз погоды (TAF)UATG 250500Z 2506/2606 30009G14MPS 9999 SCT033CB TX29/2510Z TN19/2602Z TEMPO 2506/2512 -SHRA BKN030CB BECMG 2514/2515 31009MPS BECMG 2518/2520 28004MPS
NOTAMshow/hide NOTAM
AWOS   TABLE

Информация о ВПП

ВПП Длина ВПП (м.) Покрытие Курс ВПП Частота ILS
143000Асфальтобетон149109.9
323000Асфальтобетон329108.3

Диспетчерские позиции

Позывной Наименование органа УВД Частота
UATG_TWRАтырау Вышка118.1
UATG_APPАтырау Подход123.7



Спутниковое изображение